Visalia, CA

3:36 PM PST on November 20, 2019 (GMT -0800)
Visalia Municipal

Weather History for KVIS - September, 2019

Change the Weather History Date:

Sunday, September 1, 2019

  Actual Average Record
Temperature  
Mean Temperature 82 °F -  
Max Temperature 100 °F 90 °F 108 °F (1934)
Min Temperature 64 °F 62 °F 51 °F (1999)
Cooling Degree Days 16    
Growing Degree Days 32 (Base 50)    
Moisture  
Dew Point 59 °F    
Average Humidity 51    
Maximum Humidity 90    
Minimum Humidity 22    
Precipitation  
Precipitation 0.00 in - - ()
Sea Level Pressure  
Sea Level Pressure 29.88 in    
Wind  
Wind Speed 3 mph (West)    
Max Wind Speed 8 mph    
Max Gust Speed -    
Visibility 10 miles    
Events      
Averages and records for this station are not official NWS values.
T = Trace of Precipitation, MM = Missing Value Source: NWS Daily Summary

Daily Weather History Graph

Daily Weather History Graph

Search for Another Location

Airport or City:

Astronomy

Sep. 01, 2019 Rise Set
Actual Time 6:28 AM PDT 7:25 PM PDT
Civil Twilight 6:02 AM PDT 7:51 PM PDT
Nautical Twilight 5:31 AM PDT 8:22 PM PDT
Astronomical Twilight 4:59 AM PDT 8:55 PM PDT
Moon 9:01 AM PDT (9/1) 9:20 PM PDT (9/1)
Length of Visible Light 13h 49m
Length of Day
12h 56m
Waxing Crescent, 8% of the Moon is Illuminated
Sep 1
Waxing Crescent
Sep 5
First Quarter
Sep 13
Full
Sep 21
Last Quarter
Sep 28
New

Hourly Weather History & Observations

Time (PDT) Temp. Heat Index Dew Point Humidity Pressure Visibility Wind Dir Wind Speed Gust Speed Precip Events Conditions
12:56 AM 72.0 °F - 61.0 °F 68% 29.89 in 10.0 mi Calm Calm - N/A   Clear
1:56 AM 73.9 °F - 53.1 °F 48% 29.89 in 10.0 mi NW 6.9 mph - N/A   Clear
2:56 AM 69.1 °F - 57.9 °F 68% 29.89 in 10.0 mi Calm Calm - N/A   Clear
3:56 AM 66.9 °F - 60.1 °F 79% 29.89 in 10.0 mi Calm Calm - N/A   Clear
4:56 AM 66.0 °F - 60.1 °F 81% 29.90 in 10.0 mi Calm Calm - N/A   Clear
5:56 AM 64.9 °F - 59.0 °F 81% 29.90 in 10.0 mi East 4.6 mph - N/A   Clear
6:56 AM 64.0 °F - 61.0 °F 90% 29.91 in 10.0 mi SE 3.5 mph - N/A   Clear
7:56 AM 68.0 °F - 62.1 °F 81% 29.93 in 9.0 mi ESE 3.5 mph - N/A   Clear
8:56 AM 75.0 °F - 59.0 °F 57% 29.94 in 10.0 mi SE 6.9 mph - N/A   Clear
9:56 AM 81.0 °F 81.0 °F 57.0 °F 44% 29.94 in 10.0 mi South 5.8 mph - N/A   Clear
10:56 AM 84.0 °F 83.8 °F 59.0 °F 43% 29.93 in 10.0 mi Variable 3.5 mph - N/A   Clear
11:56 AM 89.1 °F 88.8 °F 60.1 °F 38% 29.92 in 10.0 mi West 3.5 mph - N/A   Clear
12:56 PM 93.0 °F 91.7 °F 57.0 °F 30% 29.90 in 10.0 mi Variable 3.5 mph - N/A   Clear
1:56 PM 96.1 °F - 52.0 °F 22% 29.88 in 10.0 mi Variable 3.5 mph - N/A   Clear
2:56 PM 98.1 °F 97.2 °F 57.9 °F 26% 29.86 in 10.0 mi West 4.6 mph - N/A   Clear
3:56 PM 99.0 °F 96.9 °F 54.0 °F 22% 29.84 in 10.0 mi WNW 6.9 mph - N/A   Clear
4:56 PM 98.1 °F 96.4 °F 55.0 °F 24% 29.83 in 10.0 mi West 5.8 mph - N/A   Clear
5:56 PM 95.0 °F 94.8 °F 60.1 °F 31% 29.82 in 10.0 mi WNW 8.1 mph - N/A   Clear
6:56 PM 93.9 °F 94.0 °F 61.0 °F 33% 29.82 in 10.0 mi NW 5.8 mph - N/A   Clear
7:56 PM 86.0 °F 86.3 °F 62.1 °F 44% 29.83 in 10.0 mi Calm Calm - N/A   Clear
8:56 PM 84.9 °F 86.1 °F 64.0 °F 49% 29.85 in 10.0 mi West 3.5 mph - N/A   Clear
9:56 PM 82.0 °F 83.0 °F 62.1 °F 51% 29.87 in 10.0 mi WNW 5.8 mph - N/A   Clear
10:56 PM 80.1 °F 81.2 °F 62.1 °F 54% 29.87 in 10.0 mi NW 3.5 mph - N/A   Clear
11:56 PM 73.9 °F - 63.0 °F 68% 29.88 in 10.0 mi East 3.5 mph - N/A   Clear